Location: Newark
(48.5667°N, 12.8167°E)
Time: 16:35:04
(UTC+00:00)

METEOR M2 - Pass Details

Date: 23 November 2019
Orbit: 818 x 828 km, 98.5° (Epoch: 07 December)

Event Time Altitude Azimuth Distance (km) Brightness Sun altitude
Exits shadow 18:37:12 17° 353° (N) 1,994 ? -31.9°
Drops below altitude 10° 18:38:21 10° 351° (N) 2,434 ? -32.1°
Sets 18:40:43 0° 348° (NNW) 3,370 ? -32.5°
